Other Public Products
Issued by NWS Grand Forks, ND

Home | Current Version | Previous Version | Graphics & Text | Print | Product List | Glossary On
Versions: 1 2 3 4 5 6 7 8 9 10 11 12 13 14 15 16 17 18 19 20 21 22 23 24 25 26 27 28 29 30 31 32 33 34 35 36 37 38 39 40 41 42 43 44 45 46 47 48 49 50
000
FPUS83 KFGF 230231
OPUFGF
PRAIRIE TO PINES WEATHER ROUNDUP
NATIONAL WEATHER SERVICE EASTERN NORTH DAKOTA/GRAND FORKS ND
900 PM CDT FRI AUG 22 2014

 **SATELLITE DATA USED TO AUGMENT SKY COVER AT AUTOMATED STATIONS**
 *****  WEATHER ACROSS EASTERN NORTH DAKOTA  *****

CITY           SKY/WX    TMP DP  RH WIND       PRES   REMARKS
GRAND FORKS    CLOUDY    68  62  81 N9        30.06R
GRAND FORKS AF CLOUDY    67  64  89 N13       30.08R
GRAND CITY NWS   N/A     61 N/A N/A N2          N/A
BUXTON           N/A     68  67  95 N10         N/A
DEVILS LAKE    CLOUDY    64  55  72 NE13      30.09S
FARGO          CLOUDY    69  65  86 N7        30.04R
WAHPETON ARPT  CLOUDY    68  63  83 N9        30.04R
$$

 *****  WEATHER ACROSS CENTRAL AND WESTERN NORTH DAKOTA  *****

CITY           SKY/WX    TMP DP  RH WIND       PRES   REMARKS
JAMESTOWN      PTCLDY    66  63  90 NE6       30.06R
BISMARCK       CLOUDY    68  65  90 NE10      30.06R
MINOT          CLOUDY    63  59  87 N8        30.12R
MINOT AFB      CLOUDY    64  60  87 NE9       30.12R
GARRISON         N/A     64  61  90 NE6       30.10S
WILLISTON      CLOUDY    65  54  67 E14       30.12F
DICKINSON      CLOUDY    65  61  87 NE13      30.06F
HETTINGER      CLOUDY    69  60  73 E9        30.05S
$$

 *****  OTHER OBSERVATIONS NORTHEAST NORTH DAKOTA  *****

CITY           SKY/WX    TMP DP  RH WIND       PRES   REMARKS
WALHALLA         N/A     63  63 100 N14G21    30.12S
LANGDON        CLOUDY    63  57  82 N13       30.13S
CAVALIER       CLOUDY    64  59  82 N9        30.11R
GRAFTON        CLOUDY    66  61  82 N13       30.09R
CANDO          CLOUDY    63  57  82 NE10      30.13S
FORT TOTTEN      N/A     65  59  82 NE3       29.95S
ROLLA          CLOUDY    57  57 100 NE9       30.16R
RUGBY          CLOUDY    63  59  88 NE7       30.13R
 ***** THE ABOVE OBSERVATIONS ARE NON NWS ARE NOT QUALITY
        CONTROLLED AND MAY MIS-REPORT RAIN FOR SNOW...
$$

 *****  OTHER OBSERVATIONS SOUTHEAST NORTH DAKOTA *****

CITY           SKY/WX    TMP DP  RH WIND       PRES   REMARKS
COOPERSTOWN    NOT AVBL
VALLEY CITY    CLOUDY    66  66 100 NE9       30.07R
OAKES            N/A     68  68 100 NE8       30.05R
GWINNER        CLEAR     68  68 100 NE8       30.06R
SHEYENNE NWR     N/A     68  65  89 NE8       29.95S
BUFFALO          N/A     66  62  85 N8          N/A
WYNDMERE       NOT AVBL
 ***** THE ABOVE OBSERVATIONS ARE NON NWS ARE NOT QUALITY
       CONTROLLED AND MAY MIS-REPORT RAIN FOR SNOW...
$$

  *****  WEATHER ACROSS NORTHERN MINNESOTA  *****

CITY           SKY/WX    TMP DP  RH WIND       PRES   REMARKS
FLAG ISLAND    PTCLDY    70  64  83 N8        30.05R
WARROAD        MOCLDY    66  63  88 NW3       30.06S
ROSEAU         MOCLDY    66  63  88 N7        30.06S
HALLOCK        CLOUDY    66  63  88 N10       30.09R
THF RVR FALLS  CLOUDY    66  64  94 N10       30.05S
HALSTAD          N/A     68  64  89 N9          N/A
FOSSTON        MOCLDY    66  64  94 NW8       30.05R
BAUDETTE       PTCLDY    67  65  93 N6        30.05R
WASKISH        CLOUDY    70  66  88 CALM      30.05R
CROOKSTON      MOCLDY    66  64  94 N12       30.05S
$$
  *****  WEATHER ACROSS CENTRAL AND WEST MINNESOTA  *****

CITY           SKY/WX    TMP DP  RH WIND       PRES   REMARKS
BEMIDJI        PTCLDY    66  66  99 CALM      30.04R FOG
PARK RAPIDS    CLEAR     71  69  93 CALM      30.02S
WADENA         PTCLDY    70  66  88 N5        30.04R
DETROIT LAKES  PTCLDY    68  64  88 NW8       30.06R
MOORHEAD       CLOUDY    70  70 100 N9        30.05S
FERGUS FALLS   PTCLDY    70  66  88 N5        30.03R
ELBOW LAKE     FAIR      70  67  92 N5        30.03R
MORRIS MN      PTCLDY    72  70  94 N7        30.02R
STAPLES        CLOUDY    72  70  94 CALM      30.04R
WHEATON        PTCLDY    68  64  88 N6        30.05R
$$
  *****  WEATHER ELSEWHERE ACROSS MINNESOTA  *****

CITY           SKY/WX    TMP DP  RH WIND       PRES   REMARKS
DULUTH         FOG       62  60  93 E6        30.06R VSB 1/4
INTRNTL FALLS  MOCLDY    68  65  90 N5        30.04R
ELY            CLOUDY    66  63  88 CALM      30.06R
CLOQUET        CLOUDY    63  61  94 E7        30.06R FOG
BRAINERD       PTCLDY    69  68  96 SE5       30.03R
HIBBING        CLOUDY    70  66  87 CALM      30.04R
ALEXANDRIA     CLOUDY    74  68  81 N9        30.04R
SAINT CLOUD    PTCLDY    71  68  90 CALM      30.02R
MINNEAPOLIS    PTCLDY    73  67  81 N6        30.01R
$$

  *****  WEATHER ACROSS SOUTH DAKOTA  *****

CITY           SKY/WX    TMP DP  RH WIND       PRES   REMARKS
SIOUX FALLS    CLOUDY    77  69  76 NE10      29.99R
BROOKINGS      NOT AVBL
WATERTOWN      MOCLDY    71  69  93 NE8       30.01R
HURON          CLOUDY    76  69  79 NE7       29.96R
SISSETON         N/A     71  69  93 NE6       30.01R
ABERDEEN       CLOUDY    71  68  90 NE8       30.00S
MITCHELL       PTCLDY    77  71  82 SE6       29.96R
PIERRE         MOCLDY    68  65  90 NE13      29.96R
MOBRIDGE       MOCLDY    68  64  87 NE8       29.98S
RAPID CITY     MOCLDY    71  63  75 W5        30.01R
$$

  *****  SOME WEATHER IN NEARBY STATES *****

CITY           SKY/WX    TMP DP  RH WIND       PRES   REMARKS
GLASGOW MT     CLOUDY    63  54  72 NE16G25   30.09S
GREAT FALLS MT CLOUDY    54  52  94 N16       30.14R
CHEYENNE WY    CLOUDY    58  56  93 S12G22    30.10R
SCOTTSBLUFF NE LGT RAIN  64  62  93 E13       30.04R
OMAHA NE       CLOUDY    77  74  90 SE6       29.91F
DES MOINES IA  CLOUDY    81  75  82 CALM      29.95R
DAVENPORT IA   MOCLDY    76  72  87 CALM      29.97R
CHICAGO IL     MOCLDY    80  71  74 SW3       29.96R
EAU CLAIRE WI  MOCLDY    73  70  90 N3        30.00R
LA CROSSE WI   PTCLDY    79  73  82 NW5       29.96R
$$

  *****  SOME NATIONAL WEATHER *****

CITY           SKY/WX    TMP DP  RH WIND       PRES   REMARKS
LA GUARDIA NY  CLOUDY    71  60  68 E8        30.05R
RALEIGH NC     MOCLDY    77  73  87 CALM      29.97R
ATLANTA GA     PTCLDY    84  72  67 CALM      30.03R
NEW ORLEANS LA PTCLDY    84  69  60 W3        30.02R
OKLAHOMA CITY  CLEAR     89  60  37 SE14      29.90S
ALBUQUERQUE NM LGT RAIN  62  55  77 N12       30.17F
SALT LAKE CITY LGT RAIN  61  53  75 E7        30.02R
LOS ANGELES CA MOCLDY    70  63  78 W13       29.93S
BOISE ID       PTCLDY    75  35  23 NW17G25   29.87R
SEATTLE WA     MOSUNNY   70  54  56 W6        30.07S
$$

*** WEATHER ACROSS MANITOBA...SASKATCHEWAN AND ONTARIO ***
                ***ONTARIO***

CITY           SKY/WX    TMP DP  RH WIND       PRES   REMARKS
GERALDTON      MOCLDY    68  64  88 W2        30.07R
THUNDER BAY    MOCLDY    64  63  94 N2        30.06R
SIOUX LOOKOUT  MOCLDY    68  64  88 N2        30.06R
TORONTO        CLOUDY    70  64  83 E5        30.03R
BIG TROUT LK   CLOUDY    54  50  87 N9        30.15R
PICKLE LAKE    MOCLDY    70  63  78 CALM      30.07R
DRYDEN         PTCLDY    68  63  83 N3        30.07R
KENORA         MOCLDY    68  63  83 N2        30.07S
$$
                *** MANITOBA***

CITY           SKY/WX    TMP DP  RH WIND       PRES   REMARKS
BRANDON        CLOUDY    59  54  82 NE9       30.18S
DAUPHIN        CLOUDY    57  55  94 NE9       30.21S
ISLAND LAKE    CLOUDY   N/A N/A N/A NE9         N/A
PILOT MOUND      N/A     59  55  88 N8          N/A
THE PAS        MOCLDY    59  50  72 NE7       30.29R
THOMPSON       MOCLDY    54  48  82 NE9       30.34R
WINNIPEG       CLOUDY    61  59  94 N9        30.13R
LYNN LAKE      CLOUDY    52  45  76 MISG      30.39R
CHURCHILL      CLOUDY    48  43  81 N9        30.39R
GILLAM         MOCLDY    50  43  76 N20G28    30.35R
$$
                ***SASKATCHEWAN***

CITY           SKY/WX    TMP DP  RH WIND       PRES   REMARKS
ESTEVAN        CLOUDY    63  55  77 E8        30.18
KINDERSLEY     LGT RAIN  54  46  76 N10       30.29S
LLOYDMINSTER   MOCLDY    54  43  66 N6        30.35R
PRINCE ALBERT  LGT RAIN  59  55  88 NE7       30.29
REGINA         MOCLDY    61  52  72 E10       30.20R



USA.gov is the U.S. government's official web portal to all federal, state and local government web resources and services.